This demonstration page uses our WeatherBlox Daily Observations layout. Learn more.

Left ArrowRight Arrow

39.51506, -84.39828

Hourly Observations for March 15, 2021

Temp ( °F °C ) Dew Point ( °F °C ) Humidity (%) Winds ( mph kmh ) Pressure ( in mb ) Visibility ( mi km ) Precip ( " mm )
12:15 am 00:15 Clear 41 5.2 20 -6.7 42 42 ENE 20 31 30.39 1029 10 16 N/A
12:35 am 00:35 Clear 40 4.6 19 -7 43 43 ENE 20 31 30.39 1029 10 16 N/A
12:55 am 00:55 Clear 39 3.8 17 -8.1 42 42 ENE 13 20 30.43 1030 10 16 N/A
1:15 am 01:15 Clear 38 3.3 11 -11.6 33 33 ENE 21 33 30.42 1030 10 16 N/A
1:35 am 01:35 Clear 37 2.8 6 -14.2 28 28 ENE 22 35 30.41 1030 10 16 N/A
1:55 am 01:55 Clear 36 2.4 4 -15.5 26 26 NE 17 28 30.41 1030 10 16 N/A
2:15 am 02:15 Clear 36 2.1 3 -16.2 25 25 ENE 18 30 30.42 1030 10 16 N/A
2:35 am 02:35 Clear 35 1.8 3 -16.1 25 25 NE 15 24 30.42 1030 10 16 N/A
2:55 am 02:55 Clear 35 1.4 4 -15.3 28 28 NE 16 26 30.41 1030 10 16 N/A
3:15 am 03:15 Clear 34 1.2 5 -15 29 29 NE 16 26 30.41 1030 10 16 N/A
3:35 am 03:35 Clear 34 1 6 -14.6 30 30 NE 16 26 30.41 1030 10 16 N/A
3:55 am 03:55 Clear 34 1 6 -14.3 31 31 NE 16 26 30.40 1030 10 16 N/A
4:15 am 04:15 Clear 33 0.8 7 -13.8 33 33 ENE 14 22 30.40 1030 10 16 N/A
4:35 am 04:35 Clear 33 0.5 8 -13.4 35 35 ENE 14 22 30.39 1029 10 16 N/A
4:55 am 04:55 Clear 33 0.6 7 -13.7 34 34 NE 14 22 30.39 1029 10 16 N/A
5:15 am 05:15 Clear 33 0.6 7 -13.8 33 33 ENE 15 24 30.39 1029 10 16 N/A
5:35 am 05:35 Clear 33 0.4 8 -13.1 36 36 ENE 15 24 30.38 1029 10 16 N/A
5:55 am 05:55 Clear 32 0.2 9 -12.7 38 38 ENE 16 26 30.37 1029 10 16 N/A
6:15 am 06:15 Clear 32 0.1 11 -11.9 40 40 ENE 16 26 30.38 1029 10 16 N/A
6:35 am 06:35 Clear 32 undefined 11 -11.8 41 41 ENE 20 31 30.38 1029 10 16 N/A
6:55 am 06:55 Clear 32 -0.1 11 -11.4 43 43 ENE 16 26 30.39 1029 10 16 N/A
7:15 am 07:15 Clear 32 -0.1 12 -10.9 44 44 ENE 16 26 30.38 1029 10 16 N/A
7:35 am 07:35 Cloudy 32 -0.2 13 -10.4 47 47 ENE 17 28 30.38 1029 10 16 N/A
7:55 am 07:55 Cloudy 32 -0.2 14 -9.8 49 49 E 15 24 30.38 1029 10 16 N/A
8:15 am 08:15 Cloudy 31 -0.3 15 -9.3 51 51 ENE 16 26 30.38 1029 10 16 N/A
8:35 am 08:35 Cloudy 31 -0.4 16 -8.8 53 53 ENE 14 22 30.38 1029 10 16 N/A
8:55 am 08:55 Cloudy 31 -0.3 17 -8.5 54 54 E 16 26 30.37 1028 10 16 N/A
9:15 am 09:15 Cloudy 32 undefined 18 -8 55 55 ENE 16 26 30.37 1028 10 16 N/A
9:35 am 09:35 Cloudy 32 -0.1 17 -8.1 55 55 ENE 14 22 30.36 1028 10 16 N/A
9:55 am 09:55 Cloudy 32 undefined 17 -8.4 54 54 ENE 13 20 30.36 1028 10 16 N/A
10:55 am 10:55 Cloudy 33 0.7 17 -8.3 51 51 ENE 13 20 30.33 1027 10 16 N/A
11:15 am 11:15 Cloudy 33 0.8 17 -8.5 50 50 E 12 19 30.32 1027 10 16 N/A
11:35 am 11:35 Cloudy with Light Rain 34 0.9 19 -7.4 54 54 E 14 22 30.33 1027 10 16 N/A
11:55 am 11:55 Partly Cloudy 35 1.4 18 -7.6 52 52 ENE 15 24 30.30 1026 10 16 N/A
12:15 pm 12:15 Cloudy 35 1.4 17 -8.1 50 50 ENE 16 26 30.29 1026 10 16 N/A
12:35 pm 12:35 Cloudy 35 1.7 16 -8.7 46 46 E 10 17 30.30 1026 10 16 N/A
12:55 pm 12:55 Cloudy 36 2.3 16 -8.9 44 44 E 13 20 30.30 1026 10 16 N/A
1:15 pm 13:15 Cloudy 36 2.3 15 -9.2 43 43 E 16 26 30.28 1025 10 16 N/A
1:35 pm 13:35 Cloudy with Light Rain 35 1.8 19 -7.1 52 52 E 15 24 30.26 1025 10 16 N/A
1:55 pm 13:55 Cloudy with Light Rain 34 1.3 22 -5.4 61 61 E 13 20 30.24 1024 10 16 0.01 0.25
2:15 pm 14:15 Cloudy with Light Rain 34 0.9 24 -4.5 68 68 E 14 22 30.24 1024 7 11 0.02 0.51
2:35 pm 14:35 Cloudy with Light Snow 33 0.6 25 -3.9 72 72 E 10 17 30.25 1025 7 11 0.04 1.02
2:55 pm 14:55 Cloudy with Light Rain 33 0.5 27 -2.7 79 79 ENE 13 20 30.19 1022 5 8 0.07 1.78
3:15 pm 15:15 Cloudy with Light Rain 33 0.5 28 -2 84 84 ENE 9 15 30.18 1022 5 8 0.02 0.51
3:35 pm 15:35 Cloudy with Light Rain 33 0.8 29 -1.9 82 82 ENE 12 19 30.17 1022 10 16 0.03 0.76
3:55 pm 15:55 Cloudy with Light Rain 34 0.9 29 -1.8 82 82 ENE 9 15 30.16 1021 7 11 0.03 0.76
4:15 pm 16:15 Cloudy with Rain 34 0.9 29 -1.7 83 83 ENE 10 17 30.16 1021 5 8 0.02 0.51
4:35 pm 16:35 Cloudy with Light Rain 33 0.8 30 -1.1 87 87 NE 8 13 30.14 1021 4 6 0.08 2.03
4:55 pm 16:55 Cloudy with Light Rain 33 0.8 30 -1.2 87 87 ENE 7 11 30.16 1021 7 11 0.09 2.29
5:15 pm 17:15 Cloudy with Light Rain 33 0.7 31 -0.8 90 90 ENE 8 13 30.14 1021 3 5 0.05 1.27
5:35 pm 17:35 Cloudy with Light Rain 33 0.8 31 -0.6 90 90 ENE 6 9 30.13 1020 10 16 0.05 1.27
5:55 pm 17:55 Cloudy with Rain 33 0.8 31 -0.6 90 90 E 5 7 30.13 1020 10 16 0.05 1.27
6:15 pm 18:15 Cloudy 34 1 30 -0.9 87 87 E 6 9 30.13 1020 10 16 N/A
6:35 pm 18:35 Cloudy with Light Rain 34 1 30 -1 87 87 E 7 11 30.12 1020 10 16 N/A
6:55 pm 18:55 Cloudy 34 1.1 31 -0.8 87 87 E 5 7 30.12 1020 10 16 N/A
7:15 pm 19:15 Cloudy 34 1.1 31 -0.6 89 89 E 5 7 30.11 1020 10 16 N/A
7:35 pm 19:35 Cloudy 34 1.2 31 -0.4 89 89 E 3 6 30.10 1019 10 16 N/A
7:55 pm 19:55 Cloudy 34 1.2 31 -0.4 89 89 ESE 5 7 30.09 1019 10 16 N/A
8:15 pm 20:15 Cloudy 34 1.2 32 -0.1 91 91 E 5 7 30.08 1019 10 16 N/A
8:35 pm 20:35 Cloudy 35 1.4 32 0.1 91 91 E 5 7 30.08 1019 10 16 N/A
8:55 pm 20:55 Cloudy 35 1.6 33 0.4 92 92 ESE 3 6 30.08 1019 10 16 N/A
9:15 pm 21:15 Cloudy 35 1.7 33 0.6 93 93 E 3 6 30.08 1019 10 16 N/A
9:35 pm 21:35 Cloudy 35 1.8 33 0.7 93 93 E 3 6 30.07 1018 10 16 N/A
9:55 pm 21:55 Cloudy 35 1.8 33 0.7 93 93 E 5 7 30.06 1018 10 16 N/A
10:15 pm 22:15 Mostly Cloudy 35 1.7 33 0.6 93 93 ENE 3 6 30.07 1018 10 16 N/A
10:35 pm 22:35 Mostly Cloudy 35 1.5 33 0.7 94 94 ENE 3 6 30.06 1018 10 16 N/A
10:55 pm 22:55 Cloudy 35 1.5 34 1 97 97 NE 5 7 30.06 1018 10 16 N/A
11:15 pm 23:15 Cloudy 36 2 34 1.1 94 94 NE 5 7 30.05 1018 10 16 N/A
11:35 pm 23:35 Cloudy 36 2 34 1.1 94 94 ENE 3 6 30.04 1017 10 16 N/A
11:55 pm 23:55 Cloudy 36 2.1 34 1.1 93 93 NE 3 6 30.04 1017 10 16 N/A

Powered by AerisWeather